User: anonymous   Login
Location: Edoum�
(0.9447°N, 10.6482°E)
Time: 17:32:56
(UTC+00:00)
Language:

CZ-2C R/B - Orbit

View from above orbital plane
View from above orbital plane
View from above satellite
View from above satellite

Ground track
Ground track

The orbit data is extracted from the following two-line orbital elements,

1 36089U 09061B   21127.94755865 -.00000011  00000-0  88595-5 0  9997
2 36089  98.2005  97.9567 0081936 357.3486  69.4219 14.49857381607563
Epoch (UTC): 07 May 2021 22:44:29
Eccentricity: 0.0081936
inclination: 98.2005°
perigee height: 668 km
apogee height: 784 km
right ascension of ascending node: 97.9567°
argument of perigee: 357.3486°
revolutions per day: 14.49857381
mean anomaly at epoch: 69.4219°
orbit number at epoch: 60756

The dashed part of the orbit path shows where the satellite is in the earth's shadow,  

DLR